Voltar ao catálogo

SL-16 DEB

AtivoLEO
NORAD 22222·DEBRIS·🇷🇺 Russia

Lançado Nov 17, 1992 de Baikonur Cosmodrome

Loading…

Próximas Passagens (próximas 24 horas)

TLE

AtualizadoSource: Space-Track

Época: Sep 14, 2026, 02:02 UTC

1 22222U 92076D   26257.08537575  .00000088  00000-0  12507-3 0  9990
2 22222  70.9954 282.5641 0217228 307.5435  50.6099 13.70738317690861

Acompanhe SL-16 DEB em tempo real com AllMySat

Download on the App Store